Home   Weather   40°44'N, 111°58'W   Past weeks
Flag for USA

Past Weather in 40°44'N, 111°58'W, USA — Yesterday and Last 2 Weeks

Now
42 °F

Broken clouds.


Feels Like: 35 °F
Forecast: 46 / 37 °F
Wind: 15 mph from Northwest

Location: Salt Lake City International Airport

Current Time: Oct 20, 2019 at 10:50:33 am

Latest Report: Oct 20, 2019 at 9:54 am


Visibility: 10 mi

Pressure: 30.11 "Hg

Humidity: 51%

Dew Point: 25 °F

Location of 40°44'N, 111°58'WLocation

Past Weather in 40°44'N, 111°58'W — Graph

°F

40°44'N, 111°58'W Temperature Yesterday

Maximum temperature yesterday: 54 °F (at 12:54 pm)
Minimum temperature yesterday: 36 °F (at 9:54 pm)
Average temperature yesterday: 44 °F

High & Low Weather Summary for the Past Weeks

 TemperatureHumidityPressure
High77 °F (Oct 16, 2:54 pm)97% (Oct 19, 9:54 pm)30.49 "Hg (Oct 19, 9:54 pm)
Low29 °F (Oct 11, 3:54 am)9% (Oct 16, 2:54 pm)29.45 "Hg (Oct 17, 4:54 pm)
Average49 °F43%30.04 "Hg
* Reported Oct 5 8:54 am — Oct 20 8:54 am, 40°44'N, 111°58'W. Weather by CustomWeather, © 2019

Note: Actual official high and low records may vary slightly from our data, if they occured in-between our weather recording intervals... More about our weather records

Advertising

40°44'N, 111°58'W Weather History for the Previous 24 Hours

Scroll right to see more
 ConditionsComfort  
Time TempWeatherWind HumidityBarometerVisibility
8:54 am
Sun, Oct 20
40 °FBroken clouds.10 mph58%30.08 "Hg10 mi
7:54 am41 °FPartly sunny.13 mph53%30.06 "Hg10 mi
6:54 am42 °FOvercast.12 mph51%30.01 "Hg10 mi
5:54 am42 °FPassing clouds.12 mph51%29.98 "Hg10 mi
4:54 am42 °FPartly cloudy.16 mph51%29.96 "Hg10 mi
3:54 am42 °FPartly cloudy.8 mph55%29.94 "Hg10 mi
2:54 am40 °FPartly cloudy.7 mph65%29.93 "Hg10 mi
1:54 am40 °FPartly cloudy.No wind70%29.92 "Hg10 mi
12:54 am42 °FMostly cloudy.10 mph62%29.92 "Hg10 mi
11:54 pm
Sat, Oct 19
41 °FPartly cloudy.13 mph70%29.91 "Hg10 mi
10:54 pm37 °FPartly cloudy.3 mph93%29.92 "Hg10 mi
9:54 pm36 °FPartly cloudy.15 mph97%29.92 "Hg10 mi
9:21 pm38 °FLight rain. Mostly cloudy.8 mph90%29.93 "Hg9 mi
8:38 pm37 °FLight rain. Mostly cloudy.6 mph93%29.92 "Hg10 mi
8:07 pm37 °FLight rain. Overcast.17 mph93%29.92 "Hg7 mi
7:54 pm37 °FLight rain. Mostly cloudy.15 mph93%29.90 "Hg10 mi
7:28 pm39 °FLight rain. Mostly cloudy.24 mph89%29.89 "Hg7 mi
7:12 pm43 °FThunderstorms. Mostly cloudy.8 mph89%29.84 "Hg10 mi
6:54 pm43 °FLight rain. Mostly cloudy.7 mph89%29.83 "Hg10 mi
5:54 pm45 °FRain. Mostly cloudy.10 mph80%29.84 "Hg9 mi
5:37 pm46 °FThunderstorms. Mostly cloudy.8 mph83%29.84 "Hg8 mi
4:54 pm47 °FRain. Mostly cloudy.8 mph74%29.81 "Hg7 mi
3:54 pm52 °FLight rain. Mostly cloudy.16 mph50%29.77 "Hg10 mi
2:54 pm54 °FLight rain. Mostly cloudy.13 mph40%29.76 "Hg10 mi
1:54 pm54 °FMostly cloudy.7 mph34%29.79 "Hg10 mi
12:54 pm54 °FPartly sunny.16 mph35%29.80 "Hg10 mi
11:54 am53 °FPartly sunny.17 mph37%29.84 "Hg10 mi
10:54 am51 °FPartly sunny.15 mph42%29.86 "Hg10 mi
Weather by CustomWeather, © 2019

See weather overview